Hourly Data Report for April 19, 2017

KENORA A
ONTARIO

49°47'18.000" N
94°21'47.000" W
409.70 m
6034076
71850
YQK

Download Data

Hourly Data (April 2017)
Hourly Data Report for April 19, 2017
TIME
LST
Temp Definition
°C
Dew Point Definition
°C
Rel Hum Definition
%
Precip. Amount Definition
mm

Wind Dir Definition
10's deg

Wind Spd Definition
km/h
Visibility Definition
km
Stn Press Definition
kPa
Hmdx Definition


Wind Chill Definition


Weather Definition


00:00 1.3 -2.1 78   1 12 24.1 96.91     Clear
01:00 0.2 -2.5 82   1 10 24.1 96.96     LegendNANA
02:00 -0.3 -2.5 85   36 10 24.1 97.03   -4 LegendNANA
03:00 -0.6 -2.5 87   2 12 24.1 97.07   -5 Clear
04:00 -0.5 -2.4 87   5 13 24.1 97.05   -5 LegendNANA
05:00 -1.2 -2.6 90   7 11 24.1 97.09   -5 LegendNANA
06:00 -0.5 -2.3 88   7 17 24.1 97.18   -5 Clear
07:00 1.0 -1.4 84   7 14 24.1 97.25     LegendNANA
08:00 3.3 -0.3 77   8 8 24.1 97.25     LegendNANA
09:00 5.7 0.3 68   8 10 24.1 97.23     Mainly Clear
10:00 8.4 0.2 56   11 11 24.1 97.27     LegendNANA
11:00 9.2 -0.9 49   17 5 24.1 97.28     LegendNANA
12:00 10.5 -1.5 43   8 12 24.1 97.22     Mainly Clear
13:00 11.3 -1.8 40   13 9 24.1 97.22     LegendNANA
14:00 11.8 -0.3 43   22 16 24.1 97.22     LegendNANA
15:00 11.2 -1.2 42   29 6 24.1 97.19     Mostly Cloudy
16:00 11.6 -2.2 38   14 10 24.1 97.21     LegendNANA
17:00 11.7 -1.8 39   17 5 24.1 97.18     LegendNANA
18:00 11.1 -1.3 42   14 9 24.1 97.13     Cloudy
19:00 9.9 -0.9 47   12 7 24.1 97.12     LegendNANA
20:00 8.8 -0.8 51   13 6 24.1 97.16     LegendNANA
21:00 8.5 -0.8 52   13 7 24.1 97.15     Mostly Cloudy
22:00 7.6 -0.9 55   14 7 24.1 97.11     LegendNANA
23:00 4.6 -0.2 71   10 8 24.1 97.05     LegendNANA

Notes on Data Quality.

Legend

  • E = Estimated
  • M = Missing
  • NA = Not Available*
  • [empty] = Indicates an unobserved value
Date modified: